User: anonymous   Login
Location: Gwatt
(46.7204°N, 7.6223°E)
Time: 17:07:01
(UTC+00:00)
Language:

Cosmos 494 Rocket - Orbit

View from above orbital plane
View from above orbital plane
View from above satellite
View from above satellite

Ground track
Ground track

The orbit data is extracted from the following two-line orbital elements,

1  6061U 72043B   20333.57468732 +.00000046 +00000-0 +22709-4 0  9996
2  6061 074.0577 012.1302 0020093 190.1267 169.9487 14.40600974539550
Epoch (UTC): 28 November 2020 13:47:32
Eccentricity: 0.0020093
inclination: 74.0577°
perigee height: 742 km
apogee height: 771 km
right ascension of ascending node: 12.1302°
argument of perigee: 190.1267°
revolutions per day: 14.40600974
mean anomaly at epoch: 169.9487°
orbit number at epoch: 53955

The dashed part of the orbit path shows where the satellite is in the earth's shadow,  

DLR